SR1NRS Weather Reports


time (UTC)temp
C
wind
direction
speed
KPH
gust
KPH
rain 1hr
cm
rain 24hr
cm
rain mn
cm
humidity
%
barometer
mb
20260902060625 14 211 3.2 3.2 0.00 0.00 0.00 82 1018.0
20260902060124 13 218 3.2 4.8 0.00 0.00 0.00 83 1018.0
20260902055624 13 232 8.0 9.7 0.00 0.00 0.00 83 1018.0
20260902055125 13 247 6.4 9.7 0.00 0.00 0.00 83 1018.0
20260902054624 13 234 6.4 8.0 0.00 0.00 0.00 83 1018.0
20260902054123 13 246 1.6 3.2 0.00 0.00 0.00 83 1018.0
20260902053625 13 221 3.2 3.2 0.00 0.00 0.00 83 1018.0
20260902053123 13 219 0.0 1.6 0.00 0.00 0.00 83 1018.0
20260902052623 13 211 3.2 3.2 0.00 0.00 0.00 83 1017.6
20260902052124 13 247 4.8 4.8 0.00 0.00 0.00 83 1017.6
20260902051624 13 196 1.6 1.6 0.00 0.00 0.00 82 1017.6
20260902051124 13 253 3.2 3.2 0.00 0.00 0.00 83 1018.0
20260902050623 13 230 3.2 3.2 0.00 0.00 0.00 83 1017.6
20260902050123 13 227 1.6 3.2 0.00 0.00 0.00 84 1017.6
20260902045623 13 226 4.8 4.8 0.00 0.00 0.00 84 1017.6
20260902045123 13 238 3.2 3.2 0.00 0.00 0.00 84 1017.3
20260902044623 13 220 1.6 3.2 0.00 0.00 0.00 84 1017.6
20260902044124 13 240 1.6 3.2 0.00 0.00 0.00 84 1017.6
20260902043625 13 243 4.8 8.0 0.00 0.00 0.00 84 1017.3
20260902043123 13 198 3.2 4.8 0.00 0.00 0.00 84 1017.3
20260902042623 13 239 4.8 4.8 0.00 0.00 0.00 84 1017.3
20260902042123 13 219 1.6 1.6 0.00 0.00 0.00 83 1017.3
20260902041626 13 238 3.2 3.2 0.00 0.00 0.00 83 1017.3
20260902041124 13 227 3.2 4.8 0.00 0.00 0.00 83 1017.3
20260902040623 13 234 6.4 8.0 0.00 0.00 0.00 83 1017.3
20260902040124 13 221 1.6 3.2 0.00 0.00 0.00 83 1017.3
20260902035624 13 257 4.8 8.0 0.00 0.00 0.00 83 1017.3
20260902035123 13 212 4.8 4.8 0.00 0.00 0.00 83 1017.3
20260902034623 13 230 4.8 8.0 0.00 0.00 0.00 83 1017.3
20260902034123 13 234 3.2 4.8 0.00 0.00 0.00 83 1016.9
20260902033625 13 223 4.8 8.0 0.00 0.00 0.00 83 1016.9
20260902033123 13 239 6.4 8.0 0.00 0.00 0.00 83 1016.9
20260902032624 13 233 3.2 4.8 0.00 0.00 0.00 82 1016.9
20260902032123 13 215 3.2 3.2 0.00 0.00 0.00 82 1017.3
20260902031625 13 227 6.4 8.0 0.00 0.00 0.00 82 1016.9
20260902031123 13 209 0.0 1.6 0.00 0.00 0.00 82 1016.9
20260902030624 13 241 3.2 3.2 0.00 0.00 0.00 82 1017.3
20260902030123 13 221 1.6 1.6 0.00 0.00 0.00 82 1017.3
20260902025623 13 225 3.2 3.2 0.00 0.00 0.00 82 1017.3
20260902025123 13 227 4.8 4.8 0.00 0.00 0.00 82 1017.3
20260902024624 13 282 3.2 8.0 0.00 0.00 0.00 82 1017.3
20260902024123 13 221 6.4 9.7 0.00 0.00 0.00 82 1017.3
20260902023623 13 211 6.4 8.0 0.00 0.00 0.00 82 1016.9
20260902023125 13 192 6.4 9.7 0.00 0.00 0.00 82 1017.3
20260902022624 13 230 3.2 4.8 0.00 0.00 0.00 82 1017.3
20260902022123 13 237 4.8 8.0 0.00 0.00 0.00 82 1017.3
20260902021624 13 241 6.4 8.0 0.00 0.00 0.00 82 1016.9
20260902021125 13 211 6.4 8.0 0.00 0.00 0.00 81 1017.3
20260902020624 13 209 3.2 3.2 0.00 0.00 0.00 81 1016.9
20260902020123 13 224 3.2 3.2 0.00 0.00 0.00 81 1017.3
20260902015623 13 225 1.6 3.2 0.00 0.00 0.00 81 1016.9
20260902015125 13 248 6.4 8.0 0.00 0.00 0.00 81 1016.9
20260902014623 13 207 0.0 1.6 0.00 0.00 0.00 80 1016.6
20260902014123 13 225 3.2 3.2 0.00 0.00 0.00 80 1016.6
20260902013623 13 201 3.2 3.2 0.00 0.00 0.00 80 1016.9
20260902013123 13 206 1.6 3.2 0.00 0.00 0.00 80 1016.9
20260902012625 13 200 3.2 4.8 0.00 0.00 0.00 80 1016.9
20260902012123 13 220 4.8 4.8 0.00 0.00 0.00 80 1016.9
20260902011626 13 247 6.4 8.0 0.00 0.00 0.00 80 1016.9
20260902011123 13 228 4.8 4.8 0.00 0.00 0.00 80 1016.6
20260902010623 14 258 4.8 4.8 0.00 0.00 0.00 80 1016.9
20260902010124 14 222 3.2 4.8 0.00 0.00 0.00 79 1016.6
20260902005624 14 234 6.4 8.0 0.00 0.00 0.00 79 1016.6
20260902005123 14 214 4.8 4.8 0.00 0.00 0.00 79 1016.9
20260902004624 14 231 3.2 3.2 0.00 0.00 0.00 79 1016.9
20260902004125 14 226 3.2 4.8 0.00 0.00 0.00 79 1016.6
20260902003623 14 271 3.2 4.8 0.00 0.00 0.00 78 1016.9
20260902003125 14 222 1.6 3.2 0.00 0.00 0.00 78 1016.9
20260902002626 15 267 4.8 4.8 0.00 0.00 0.00 78 1016.9
20260902002123 15 266 6.4 8.0 0.00 0.00 0.00 78 1016.9
20260902001623 15 267 4.8 4.8 0.00 0.00 0.00 78 1016.9
20260902001124 15 246 4.8 4.8 0.00 0.00 0.00 77 1016.6
20260902000623 15 235 4.8 4.8 0.00 0.00 0.00 77 1016.9
20260902000123 15 211 3.2 4.8 0.00 0.00 0.00 77 1016.9
20260901235623 15 216 1.6 3.2 0.00 0.00 0.00 77 1016.9
20260901235123 15 216 6.4 8.0 0.00 0.00 0.00 76 1016.9
20260901234623 15 242 3.2 4.8 0.00 0.00 0.00 76 1016.9
20260901234125 15 218 1.6 1.6 0.00 0.00 0.00 76 1016.9
20260901233623 15 216 1.6 1.6 0.00 0.00 0.00 76 1016.9
20260901233124 15 274 6.4 8.0 0.00 0.00 0.00 76 1016.9
20260901232623 15 212 6.4 8.0 0.00 0.00 0.00 76 1016.9
20260901232123 15 272 3.2 3.2 0.00 0.00 0.00 76 1016.6
20260901231623 16 250 4.8 4.8 0.00 0.00 0.00 75 1016.9
20260901231124 16 221 4.8 4.8 0.00 0.00 0.00 76 1016.9
20260901230623 16 278 4.8 9.7 0.00 0.00 0.00 76 1016.9
20260901230122 16 233 3.2 3.2 0.00 0.00 0.00 76 1016.9
20260901225623 16 280 4.8 8.0 0.00 0.00 0.00 77 1016.9
20260901225124 16 243 3.2 3.2 0.00 0.00 0.00 77 1016.6
20260901224623 16 216 0.0 0.0 0.00 0.00 0.00 77 1016.9
20260901224123 16 221 1.6 1.6 0.00 0.00 0.00 77 1016.9
20260901223623 16 242 6.4 8.0 0.00 0.00 0.00 77 1016.9
20260901223123 16 220 1.6 3.2 0.00 0.00 0.00 77 1016.9
20260901222624 16 219 4.8 4.8 0.00 0.00 0.00 77 1016.9
20260901222123 16 207 4.8 4.8 0.00 0.00 0.00 77 1016.9
20260901221623 16 336 3.2 3.2 0.00 0.00 0.00 77 1016.9
20260901221124 15 232 8.0 9.7 0.00 0.00 0.00 77 1016.6
20260901220623 15 222 0.0 0.0 0.00 0.00 0.00 78 1016.6
20260901220124 15 256 4.8 4.8 0.00 0.00 0.00 79 1016.6
20260901215623 15 238 4.8 4.8 0.00 0.00 0.25 79 1016.6
20260901215126 15 209 0.0 1.6 0.00 0.00 0.25 79 1016.6
20260901214623 15 198 1.6 3.2 0.00 0.00 0.25 79 1016.3
20260901214123 15 243 4.8 4.8 0.00 0.00 0.25 79 1016.3
20260901213623 15 231 3.2 3.2 0.00 0.00 0.25 79 1016.3
20260901213123 15 229 3.2 3.2 0.00 0.00 0.25 78 1016.3
20260901212623 16 218 1.6 1.6 0.00 0.00 0.25 78 1016.3
20260901212123 16 204 3.2 3.2 0.00 0.00 0.25 77 1016.6
20260901211624 16 275 6.4 8.0 0.00 0.00 0.25 77 1016.6
20260901211123 16 212 4.8 4.8 0.00 0.00 0.25 77 1016.6
20260901210624 16 207 1.6 1.6 0.00 0.00 0.25 77 1016.6
20260901210123 16 221 3.2 3.2 0.00 0.00 0.25 77 1016.6
20260901205623 16 232 0.0 1.6 0.00 0.00 0.25 77 1016.3
20260901205123 16 237 4.8 4.8 0.00 0.00 0.25 77 1016.3
20260901204624 16 238 3.2 4.8 0.00 0.00 0.25 78 1016.3
20260901204123 16 239 1.6 3.2 0.00 0.00 0.25 77 1016.6
20260901203623 16 204 3.2 4.8 0.00 0.00 0.25 77 1016.6
20260901203125 16 248 3.2 3.2 0.00 0.00 0.25 77 1016.6
20260901202623 16 223 3.2 3.2 0.00 0.00 0.25 78 1016.3
20260901202124 16 221 3.2 3.2 0.00 0.00 0.25 78 1016.6
20260901201623 16 279 4.8 4.8 0.00 0.00 0.25 78 1016.6
20260901201123 16 183 1.6 1.6 0.00 0.00 0.25 77 1016.3
20260901200623 16 239 1.6 1.6 0.00 0.00 0.25 77 1016.3
20260901200124 16 257 3.2 3.2 0.00 0.00 0.25 77 1016.3
20260901195624 16 246 0.0 1.6 0.00 0.00 0.25 78 1016.3
20260901195123 16 232 0.0 0.0 0.00 0.00 0.25 77 1016.3
20260901194623 16 217 1.6 1.6 0.00 0.00 0.25 77 1016.3
20260901194123 16 227 1.6 1.6 0.00 0.00 0.25 77 1016.3
20260901193623 16 218 1.6 3.2 0.00 0.00 0.25 77 1016.3
20260901193124 16 220 1.6 3.2 0.00 0.00 0.25 77 1016.3
20260901192623 16 210 1.6 3.2 0.00 0.00 0.25 78 1016.3
20260901192123 16 217 0.0 0.0 0.00 0.00 0.25 79 1016.3
20260901191623 16 226 1.6 1.6 0.00 0.00 0.25 79 1016.3
20260901191124 16 216 1.6 1.6 0.00 0.00 0.25 79 1016.3
20260901190623 16 229 3.2 3.2 0.00 0.00 0.25 79 1016.3
20260901190123 16 232 3.2 3.2 0.00 0.00 0.25 80 1015.9
20260901185623 16 215 1.6 1.6 0.00 0.00 0.25 80 1015.9
20260901185125 16 226 4.8 4.8 0.00 0.00 0.25 80 1015.9
20260901184623 16 204 1.6 1.6 0.00 0.00 0.25 80 1015.9
20260901184124 16 214 1.6 1.6 0.00 0.00 0.25 80 1015.9
20260901183623 16 205 0.0 0.0 0.00 0.00 0.25 80 1015.9
20260901183124 16 215 1.6 3.2 0.00 0.00 0.25 80 1015.6
20260901182623 16 212 0.0 0.0 0.00 0.00 0.25 80 1015.6
20260901182124 16 202 0.0 1.6 0.00 0.00 0.25 80 1015.6
20260901181623 16 219 1.6 1.6 0.00 0.00 0.25 80 1015.9
20260901181125 16 223 1.6 1.6 0.00 0.00 0.25 80 1015.6
20260901180625 16 219 1.6 1.6 0.00 0.00 0.25 80 1015.6
20260901180125 16 233 0.0 1.6 0.00 0.00 0.25 80 1015.6
20260901175623 16 216 0.0 0.0 0.00 0.00 0.25 80 1015.6
20260901175123 16 235 1.6 1.6 0.00 0.00 0.25 80 1015.6
20260901174623 16 274 3.2 4.8 0.00 0.00 0.25 80 1015.6
20260901174123 16 264 4.8 8.0 0.00 0.00 0.25 80 1015.6
20260901173628 16 219 1.6 1.6 0.00 0.00 0.25 80 1015.2
20260901173123 16 244 1.6 3.2 0.00 0.00 0.25 79 1015.2
20260901172623 16 253 3.2 3.2 0.00 0.00 0.25 79 1015.2
20260901172123 16 208 1.6 3.2 0.00 0.00 0.25 79 1015.6
20260901171625 16 157 1.6 1.6 0.18 0.00 0.25 79 1015.2
20260901171124 16 212 6.4 11.3 1.37 0.00 0.25 78 1015.6
20260901170625 17 282 9.7 16.1 1.19 0.00 0.23 78 1015.6
20260901170124 18 349 11.3 14.5 0.13 0.00 0.05 73 1015.6
20260901165623 18 346 4.8 9.7 0.00 0.00 0.03 69 1015.2
20260901165123 18 328 8.0 14.5 0.00 0.00 0.03 67 1015.2
20260901164624 19 198 6.4 9.7 0.00 0.00 0.03 66 1015.2
20260901164123 20 354 11.3 24.1 0.00 0.00 0.03 68 1015.2
20260901163624 20 280 1.6 1.6 0.00 0.00 0.03 66 1014.9
20260901163123 21 240 1.6 1.6 0.00 0.00 0.03 66 1014.9
20260901162624 21 329 0.0 1.6 0.00 0.00 0.03 64 1014.9
20260901162133 21 209 3.2 3.2 0.00 0.00 0.03 56 1014.6
20260901161623 21 268 1.6 3.2 0.00 0.00 0.03 55 1014.9
20260901161123 21 289 4.8 4.8 0.00 0.00 0.03 55 1014.9
20260901160623 22 294 4.8 8.0 0.00 0.00 0.03 54 1014.9
20260901160124 21 234 6.4 9.7 0.00 0.00 0.03 55 1014.6
20260901155625 22 268 19.3 20.9 0.00 0.00 0.03 55 1014.6
20260901155123 21 229 4.8 8.0 0.00 0.00 0.03 56 1014.2
20260901154623 21 227 4.8 4.8 0.00 0.00 0.03 56 1014.2
20260901154124 21 254 14.5 14.5 0.00 0.00 0.03 56 1014.6
20260901153623 21 234 11.3 14.5 0.00 0.00 0.03 55 1014.2
20260901153124 21 225 11.3 17.7 0.00 0.00 0.03 55 1014.6
20260901152623 21 249 9.7 11.3 0.00 0.00 0.03 54 1014.6
20260901152123 21 234 8.0 12.9 0.00 0.00 0.03 55 1014.2
20260901151624 21 269 8.0 11.3 0.00 0.00 0.03 54 1014.6
20260901151127 21 254 16.1 22.5 0.00 0.00 0.03 54 1014.2
20260901150624 21 241 8.0 12.9 0.00 0.00 0.03 55 1014.2
20260901150124 22 236 8.0 9.7 0.00 0.00 0.03 55 1014.2
20260901145623 22 256 11.3 14.5 0.00 0.00 0.03 54 1014.6
20260901145124 21 238 8.0 9.7 0.00 0.00 0.03 53 1014.2
20260901144623 21 230 1.6 3.2 0.00 0.00 0.03 53 1014.2
20260901144124 22 227 3.2 4.8 0.00 0.00 0.03 53 1014.2
20260901143623 22 309 6.4 9.7 0.00 0.00 0.03 53 1014.2
20260901143123 22 240 8.0 12.9 0.00 0.00 0.03 52 1014.2
20260901142623 22 285 6.4 11.3 0.00 0.00 0.03 49 1014.2
20260901142123 22 218 8.0 14.5 0.00 0.00 0.03 52 1014.2
20260901141623 23 183 6.4 9.7 0.00 0.00 0.03 51 1014.2
20260901141126 23 243 1.6 1.6 0.00 0.00 0.03 55 1014.2
20260901140623 23 211 1.6 3.2 0.00 0.00 0.03 55 1014.2
20260901140123 22 272 6.4 8.0 0.00 0.00 0.03 56 1014.2
20260901135624 22 268 4.8 4.8 0.00 0.00 0.03 56 1014.2
20260901135125 23 325 8.0 9.7 0.00 0.00 0.03 55 1014.2
20260901134623 22 230 4.8 9.7 0.00 0.00 0.03 55 1014.2
20260901134124 21 239 11.3 16.1 0.00 0.00 0.03 59 1014.2
20260901133623 21 258 20.9 27.4 0.00 0.00 0.03 59 1014.2
20260901133123 21 272 8.0 9.7 0.00 0.00 0.03 58 1014.2
20260901132624 21 231 11.3 16.1 0.00 0.00 0.03 59 1014.2
20260901132127 21 279 11.3 12.9 0.00 0.00 0.03 62 1014.2
20260901131624 21 217 8.0 11.3 0.00 0.00 0.03 62 1014.2
20260901131124 20 217 9.7 12.9 0.00 0.00 0.03 64 1014.6
20260901130623 21 242 11.3 14.5 0.00 0.00 0.03 67 1014.2
20260901130123 21 205 4.8 8.0 0.00 0.00 0.03 66 1014.2
20260901125623 20 236 8.0 11.3 0.00 0.00 0.03 69 1014.2
20260901125125 20 266 8.0 9.7 0.00 0.00 0.03 69 1014.6
20260901124624 20 213 3.2 4.8 0.00 0.00 0.03 69 1014.2
20260901124124 20 237 6.4 11.3 0.00 0.00 0.03 70 1014.6
20260901123624 20 259 11.3 16.1 0.00 0.00 0.03 70 1014.6
20260901123124 20 228 11.3 12.9 0.00 0.00 0.03 69 1014.2
20260901122624 19 296 4.8 8.0 0.00 0.00 0.03 69 1014.2
20260901122123 19 207 6.4 12.9 0.00 0.00 0.03 68 1014.6
20260901121623 19 286 8.0 12.9 0.00 0.00 0.03 67 1014.2
20260901121124 20 261 4.8 4.8 0.00 0.00 0.03 65 1014.2
20260901120624 18 308 14.5 20.9 0.00 0.00 0.03 67 1014.6
20260901120125 19 206 6.4 9.7 0.00 0.00 0.03 67 1014.6
20260901115623 19 230 11.3 16.1 0.00 0.00 0.03 67 1014.2
20260901115125 19 191 3.2 4.8 0.00 0.00 0.03 69 1014.6
20260901114624 19 247 12.9 17.7 0.00 0.00 0.03 69 1014.2
20260901114123 18 254 11.3 16.1 0.00 0.00 0.03 71 1014.6
20260901113623 19 152 16.1 20.9 0.00 0.00 0.03 72 1014.2
20260901113124 20 249 17.7 27.4 0.00 0.00 0.03 70 1014.2
20260901112623 20 257 19.3 24.1 0.00 0.00 0.03 69 1014.2
20260901112125 20 261 14.5 22.5 0.00 0.00 0.03 70 1013.9
20260901111623 20 203 11.3 14.5 0.00 0.00 0.03 68 1014.2
20260901111123 20 238 8.0 9.7 0.00 0.00 0.03 68 1014.2
20260901110623 19 268 9.7 12.9 0.00 0.00 0.03 70 1014.2
20260901110124 20 269 9.7 14.5 0.00 0.00 0.03 67 1014.2
20260901105623 19 250 6.4 9.7 0.00 0.00 0.03 69 1014.2
20260901105124 19 250 17.7 24.1 0.00 0.00 0.03 69 1014.2
20260901104623 20 269 11.3 12.9 0.00 0.00 0.03 68 1013.9
20260901104123 20 276 19.3 24.1 0.00 0.00 0.03 67 1013.9
20260901103624 20 251 14.5 20.9 0.00 0.00 0.03 65 1014.2
20260901103123 20 240 4.8 8.0 0.00 0.00 0.03 62 1013.9
20260901102623 20 158 3.2 4.8 0.00 0.00 0.03 65 1014.2
20260901102123 20 261 11.3 12.9 0.00 0.00 0.03 68 1013.9
20260901101624 20 224 8.0 12.9 0.00 0.00 0.03 68 1013.6
20260901101123 19 255 6.4 11.3 0.00 0.00 0.03 68 1013.9
20260901100623 19 231 17.7 22.5 0.00 0.00 0.03 69 1013.6
20260901100123 18 214 3.2 3.2 0.00 0.00 0.03 70 1013.6
20260901095623 18 242 17.7 22.5 0.00 0.00 0.03 71 1013.9
20260901095123 19 348 11.3 14.5 0.00 0.00 0.03 70 1013.6
20260901094624 18 251 14.5 17.7 0.00 0.00 0.03 72 1013.6
20260901094124 18 277 9.7 12.9 0.00 0.00 0.03 72 1013.9
20260901093623 18 255 8.0 11.3 0.00 0.00 0.03 72 1013.6
20260901093123 18 232 8.0 11.3 0.00 0.00 0.03 71 1013.6
20260901092624 18 269 11.3 16.1 0.00 0.00 0.03 71 1013.6
20260901092123 19 230 4.8 8.0 0.00 0.00 0.03 70 1013.6
20260901091624 18 251 14.5 17.7 0.00 0.00 0.03 71 1013.6
20260901091123 18 277 8.0 14.5 0.00 0.00 0.03 71 1013.6
20260901090623 18 260 8.0 11.3 0.00 0.00 0.03 72 1013.6
20260901090124 18 220 9.7 11.3 0.00 0.00 0.03 73 1013.6
20260901085623 18 222 6.4 8.0 0.00 0.00 0.03 74 1013.6
20260901085123 18 217 8.0 11.3 0.00 0.00 0.03 74 1013.6
20260901084626 17 162 3.2 8.0 0.00 0.00 0.03 74 1013.6
20260901084123 17 279 4.8 8.0 0.00 0.00 0.03 75 1013.6
20260901083625 17 247 6.4 9.7 0.00 0.00 0.03 76 1013.6
20260901083123 17 251 6.4 9.7 0.00 0.00 0.03 78 1013.6
20260901082623 17 236 1.6 1.6 0.00 0.00 0.03 79 1013.6
20260901082123 17 221 4.8 8.0 0.00 0.00 0.03 79 1013.6
20260901081623 16 302 6.4 8.0 0.00 0.00 0.03 79 1013.6
20260901081123 16 234 11.3 12.9 0.00 0.00 0.03 80 1013.2
20260901080623 16 190 8.0 12.9 0.00 0.00 0.03 80 1013.2
20260901080123 16 226 8.0 11.3 0.00 0.00 0.03 81 1013.6
20260901075623 16 221 8.0 11.3 0.00 0.00 0.03 81 1013.2
20260901075123 16 272 14.5 20.9 0.00 0.00 0.03 81 1013.2
20260901074623 16 234 12.9 14.5 0.00 0.00 0.03 81 1013.2
20260901074124 16 223 4.8 8.0 0.00 0.00 0.03 81 1012.9
20260901073624 16 233 8.0 9.7 0.00 0.00 0.03 81 1012.9
20260901073123 16 184 6.4 8.0 0.00 0.00 0.03 81 1012.9
20260901072624 16 258 8.0 9.7 0.00 0.00 0.03 81 1012.9
20260901072123 16 215 4.8 8.0 0.00 0.00 0.03 81 1012.9
20260901071623 16 241 4.8 8.0 0.00 0.00 0.03 81 1013.2
20260901071125 15 221 8.0 9.7 0.00 0.00 0.03 81 1012.9
20260901070623 16 274 8.0 9.7 0.00 0.00 0.03 81 1012.9
20260901070123 15 243 4.8 4.8 0.00 0.00 0.03 82 1012.9
20260901065624 15 240 8.0 9.7 0.00 0.00 0.03 82 1012.9
20260901065123 15 241 6.4 8.0 0.00 0.00 0.03 82 1012.5
20260901064623 15 260 9.7 14.5 0.00 0.00 0.03 82 1012.5
20260901064124 15 265 12.9 14.5 0.00 0.00 0.03 82 1012.5
20260901063623 15 245 8.0 11.3 0.00 0.00 0.03 82 1012.5
20260901063124 15 250 8.0 9.7 0.00 0.00 0.03 82 1012.5
20260901062627 15 238 8.0 11.3 0.00 0.00 0.03 81 1012.5
20260901062127 15 271 11.3 14.5 0.00 0.00 0.03 81 1012.5
20260901061625 15 238 8.0 9.7 0.00 0.00 0.03 82 1012.5
20260901061123 15 240 8.0 11.3 0.00 0.00 0.03 82 1012.2